Location: Sternwarte ZA, Rosenfeld-Brittheim
(48.2889°N, 8.6789°E)
Time: 03:35:23
(UTC+02:00)

ISS - Pass Details

Date: 21 May 2018
Orbit: 402 x 407 km, 51.6° (Epoch: 23 May)

Event Time Altitude Azimuth Distance (km) Brightness Sun altitude
Rises 02:19:38 0° 285° (WNW) 2,320 0.0 -20.4°
Reaches altitude 10° 02:21:45 10° 292° (WNW) 1,460 -0.9 -20.3°
Maximum altitude 02:24:56 47° 7° (N) 542 -2.8 -20.1°
Drops below altitude 10° 02:28:07 10° 84° (E) 1,457 -0.7 -20.0°
Sets 02:30:14 0° 90° (E) 2,316 0.2 -19.9°
